Location: Newark
(7.0858°N, 171.3717°E)
Time: 04:58:18
(UTC+00:00)

Courier 1B - Pass Details

Date: 02 December 2020
Orbit: 962 x 1209 km, 28.3° (Epoch: 20 January)

Event Time Altitude Azimuth Distance (km) Brightness Sun altitude
Rises 11:04:49 0° 311° (NW) 3,697 - -65.7°
Reaches altitude 10° 11:10:00 10° 345° (NNW) 2,805 - -66.7°
Maximum altitude 11:11:54 11° 1° (N) 2,741 - -67.0°
Drops below altitude 10° 11:13:50 10° 17° (NNE) 2,853 - -67.4°
Sets 11:19:16 0° 51° (NE) 3,883 - -68.4°
